[[{"header":{"parameterUnit":"m.s-1","parameterCategory":1,"la1":30.2991,"la2":30.254,"lo1":-89.0895,"lo2":-89.0444,"dy":0.0017,"dx":0.0017,"nx":28,"ny":28,"refTime":"2023-07-18T03:00:00:Z","depth":0,"parameterNumber":2,"parameterNumberName":"U-component_of_WINDS"},"data":[0,0,0,0,0,0,0,0,0,0,0,0,0,0,0,0,0,0,0,0,0,0,0,0,0,0,0,0,0,0,0,0,0,0,0,0,0,0,0,0,0,0,0,0,0,0,0,0,0,0,0,0,0,0,0,0,0,0,2.6953,2.6954,0,2.7005,2.7005,2.7006,2.6994,2.6993,2.6992,2.6992,2.7046,2.7048,2.7051,0,0,0,0,0,0,0,0,0,0,0,0,0,2.6847,2.6849,2.6953,2.6954,2.6954,2.7004,2.7005,2.7006,2.6995,2.6993,2.6992,2.6991,2.7045,2.7048,2.7051,0,0,0,0,0,0,0,0,0,0,0,0,0,2.6895,2.685,2.6953,2.6955,2.6955,2.7004,2.7005,2.7006,2.6995,2.6993,2.6992,2.6991,2.7044,2.7048,2.7051,2.7102,0,0,2.7062,2.7064,0,0,0,0,0,0,0,0,2.6892,2.6899,2.6954,2.6955,2.6955,2.6991,2.6988,2.7038,2.6995,2.698,2.6991,2.699,2.7029,2.7034,2.7047,2.7105,2.7107,2.7062,2.7064,2.7066,2.7067,0,0,0,0,0,0,0,2.6889,2.6897,2.6973,2.6955,2.6956,2.6954,2.6959,2.6997,2.7012,2.6981,2.698,2.6987,2.7029,2.7043,2.7048,2.7108,2.7062,2.7065,2.7068,2.7069,2.7211,2.7213,0,0,0,0,0,0,2.6885,2.6894,2.6972,2.6975,2.692,2.6957,2.6962,2.6981,2.7012,2.7015,2.6988,2.6986,2.7038,2.7044,2.705,2.7112,2.7066,2.7069,2.7071,2.7209,2.7211,2.7213,0,0,0,0,0,0,2.6883,2.6892,2.697,2.6934,2.6944,2.696,2.6981,2.6983,2.6997,2.7017,2.7019,2.6999,2.7037,2.7045,2.7089,2.7114,2.7071,2.7074,2.7208,2.721,2.7212,2.7236,0,0,0,0,0,0,2.688,2.6891,2.691,2.6935,2.6946,2.7008,2.6983,2.6985,2.7003,2.7001,2.7028,2.7031,2.7037,2.7084,2.7093,2.7118,2.7077,2.7205,2.7209,2.7212,2.7233,2.7239,2.7244,0,0,0,0,0,2.6876,2.6915,2.6911,2.692,2.697,2.7009,2.7016,2.702,2.7005,2.7025,2.7037,2.703,2.711,2.7089,2.7098,2.7125,2.7204,2.7208,2.7211,2.7231,2.7238,2.7244,0,0,0,0,0,0,2.6893,2.6918,2.6914,2.6962,2.6984,2.7007,2.7032,2.7028,2.7054,2.7051,2.7057,2.7063,2.7109,2.7121,2.7097,2.7176,2.7155,2.7161,2.7166,2.7173,2.7178,2.7175,2.708,0,0,0,0,0,2.6902,2.6931,2.6952,2.6993,2.7003,2.7016,2.7033,2.7035,2.7058,2.7067,2.7082,2.7105,2.7135,2.7155,2.7184,2.7235,2.7241,2.7258,2.7264,2.7268,2.7273,2.7302,2.731,2.7226,2.7225,2.7225,0,0,2.6922,2.6939,2.6957,2.6996,2.7013,2.7044,2.7024,2.7057,2.708,2.7072,2.7115,2.7127,2.7153,2.7201,2.7224,2.7213,2.7298,2.7273,2.7276,2.7279,2.7307,2.7315,2.7322,2.7228,2.7228,2.7227,0,0,2.6973,2.6989,2.7025,2.7042,2.7068,2.7076,2.7084,2.7109,2.7117,2.716,2.7155,2.7183,2.7234,2.7253,2.7269,2.7328,2.7323,2.7338,2.7366,2.7394,2.7401,2.7407,2.7428,2.7436,2.7343,2.7343,2.7343,0,2.6995,2.704,2.7044,2.7078,2.7096,2.709,2.7126,2.7143,2.7177,2.719,2.7177,2.7242,2.7259,2.7312,2.7327,2.734,2.735,2.7334,2.7399,2.7405,2.7411,2.7432,2.744,2.7344,2.7344,2.7344,2.7344,0,2.7065,2.7097,2.7123,2.7155,2.7176,2.7211,2.7221,2.7242,2.7242,2.7252,2.7296,2.7316,2.7349,2.7362,2.7363,2.7415,2.7408,2.7398,2.7376,2.7421,2.744,2.7448,2.7346,2.7346,2.7345,2.7345,0,0,2.7129,2.7163,2.7173,2.7188,2.7216,2.7241,2.7276,2.7308,2.7325,2.7349,2.7379,2.7423,2.7414,2.7432,2.7435,2.746,2.7506,2.7447,2.7447,2.7457,2.7566,2.7574,2.7583,2.7503,2.7505,2.7506,2.7564,0,2.7183,2.7245,2.725,2.7305,2.7335,2.733,2.7361,2.7382,2.7392,2.7419,2.7431,2.7462,2.7447,2.7458,2.7482,2.7496,2.7528,2.7492,2.7532,2.7533,2.7526,2.7593,2.7602,2.7656,2.7572,2.7573,2.7574,0,2.7254,2.728,2.7339,2.7363,2.7376,2.7403,2.7433,2.7459,2.7483,2.7489,2.751,2.7509,2.7547,2.7524,2.7575,2.755,2.7567,2.7576,2.7578,2.7582,2.7556,2.76,2.7673,2.7681,2.7586,2.7585,2.7584,0,2.7295,2.7345,2.7386,2.7399,2.7428,2.7448,2.7461,2.7484,2.7503,2.7529,2.7542,2.7572,2.7589,2.7613,2.7621,2.7604,2.7673,2.765,2.7679,2.7679,2.7694,2.7693,2.7771,2.7704,2.7704,2.7704,2.7704,0,2.7356,2.7392,2.7405,2.743,2.7471,2.7477,2.7517,2.7529,2.755,2.7578,2.7576,2.7603,2.7612,2.7641,2.7647,2.7689,2.7697,2.7703,2.7705,2.7703,2.7703,2.7715,2.7711,2.7706,2.7706,2.7705,2.7705,0,2.7408,2.7418,2.7463,2.7487,2.7494,2.7523,2.7544,2.7569,2.7579,2.7615,2.7624,2.764,2.7674,2.7684,2.7725,2.773,2.7779,2.7777,2.777,2.7771,2.7799,2.7796,2.7888,2.79,2.7825,2.7826,2.7826,0,2.7446,2.7473,2.7501,2.7519,2.7533,2.7563,2.7583,2.759,2.761,2.764,2.7662,2.7695,2.7722,2.7776,2.7791,2.7823,2.7822,2.7852,2.7826,2.7824,2.7822,2.7821,2.7824,2.7856,2.7857,2.7858,2.7858,0,2.7512,2.7516,2.7543,2.7573,2.7596,2.762,2.7643,2.7659,2.7669,2.7693,2.7727,2.7748,2.7789,2.7822,2.7854,2.7869,2.7866,2.7866,2.7875,2.7874,2.7869,2.7872,2.7784,2.7864,2.7863,2.7863,2.7863,2.7863,2.7559,2.7583,2.7606,2.7637,2.7655,2.7677,2.7702,2.7715,2.7743,2.7777,2.778,2.7817,2.7841,2.7884,2.79,2.7929,2.7921,2.7933,2.7936,2.7939,2.7941,2.7864,2.7935,2.7935,2.7935,2.7935,2.7935,0,2.7625,2.764,2.7668,2.77,2.7725,2.772,2.7745,2.7766,2.7799,2.7821,2.7848,2.7887,2.792,2.7938,2.797,2.799,2.799,2.7999,2.7997,2.8001,2.7947,2.7936,2.7999,2.7999,2.7999,2.7999,2.7999,2.7999,2.7662,2.7704,2.771,2.7761,2.7776,2.7812,2.7827,2.7847,2.7865,2.7909,2.7936,2.7947,2.7968,2.8002,2.8032,2.8036,2.8049,2.8058,2.8062,2.8011,2.8005,2.7998,2.7989,2.8061,2.8061,2.8114,2.8114,2.8115]},{"header":{"parameterUnit":"m.s-1","parameterCategory":1,"la1":30.2991,"la2":30.254,"lo1":-89.0895,"lo2":-89.0444,"dy":0.0017,"dx":0.0017,"nx":28,"ny":28,"refTime":"2023-07-18T03:00:00:Z","depth":0,"parameterNumber":3,"parameterNumberName":"V-component_of_WINDS"},"data":[0,0,0,0,0,0,0,0,0,0,0,0,0,0,0,0,0,0,0,0,0,0,0,0,0,0,0,0,0,0,0,0,0,0,0,0,0,0,0,0,0,0,0,0,0,0,0,0,0,0,0,0,0,0,0,0,0,0,1.0354,1.0354,0,1.0345,1.0345,1.0345,1.0347,1.0347,1.0347,1.0347,1.0338,1.0337,1.0337,0,0,0,0,0,0,0,0,0,0,0,0,0,1.037,1.037,1.0354,1.0354,1.0354,1.0345,1.0345,1.0345,1.0347,1.0347,1.0347,1.0348,1.0338,1.0337,1.0337,0,0,0,0,0,0,0,0,0,0,0,0,0,1.0363,1.037,1.0354,1.0354,1.0354,1.0346,1.0345,1.0345,1.0347,1.0347,1.0347,1.0348,1.0338,1.0337,1.0337,1.0328,0,0,1.0335,1.0335,0,0,0,0,0,0,0,0,1.0363,1.0362,1.0354,1.0354,1.0354,1.0348,1.0348,1.0339,1.0347,1.0349,1.0347,1.0348,1.0341,1.034,1.0338,1.0328,1.0327,1.0335,1.0334,1.0334,1.0334,0,0,0,0,0,0,0,1.0364,1.0362,1.0351,1.0354,1.0354,1.0353,1.0353,1.0346,1.0344,1.0349,1.0349,1.0348,1.0341,1.0338,1.0338,1.0327,1.0335,1.0334,1.0334,1.0334,1.0309,1.0308,0,0,0,0,0,0,1.0364,1.0363,1.0351,1.035,1.0359,1.0353,1.0352,1.0349,1.0344,1.0343,1.0348,1.0348,1.0339,1.0338,1.0337,1.0326,1.0334,1.0334,1.0333,1.0309,1.0309,1.0308,0,0,0,0,0,0,1.0365,1.0363,1.0351,1.0357,1.0355,1.0352,1.0349,1.0349,1.0347,1.0343,1.0343,1.0346,1.0339,1.0338,1.033,1.0326,1.0333,1.0333,1.0309,1.0309,1.0308,1.0304,0,0,0,0,0,0,1.0365,1.0363,1.0361,1.0357,1.0355,1.0345,1.0349,1.0349,1.0346,1.0346,1.0341,1.0341,1.0339,1.0331,1.033,1.0325,1.0332,1.031,1.0309,1.0309,1.0305,1.0304,1.0303,0,0,0,0,0,1.0366,1.036,1.036,1.0359,1.0351,1.0345,1.0344,1.0343,1.0345,1.0342,1.034,1.0341,1.0327,1.033,1.0329,1.0324,1.031,1.0309,1.0309,1.0305,1.0304,1.0303,0,0,0,0,0,0,1.0363,1.0359,1.036,1.0352,1.0349,1.0345,1.0341,1.0342,1.0337,1.0337,1.0336,1.0335,1.0327,1.0325,1.0329,1.0315,1.0319,1.0318,1.0316,1.0315,1.0314,1.0315,1.0332,0,0,0,0,0,1.0362,1.0357,1.0354,1.0347,1.0346,1.0344,1.0341,1.034,1.0336,1.0335,1.0332,1.0328,1.0322,1.0319,1.0314,1.0304,1.0303,1.03,1.0299,1.0298,1.0297,1.0291,1.029,1.0306,1.0306,1.0306,0,0,1.0358,1.0356,1.0353,1.0347,1.0344,1.0339,1.0342,1.0337,1.0333,1.0334,1.0326,1.0324,1.0319,1.031,1.0306,1.0308,1.0293,1.0298,1.0297,1.0296,1.0291,1.0289,1.0288,1.0306,1.0306,1.0306,0,0,1.035,1.0348,1.0342,1.0339,1.0335,1.0333,1.0332,1.0328,1.0326,1.0319,1.0319,1.0314,1.0305,1.0301,1.0298,1.0288,1.0288,1.0286,1.0281,1.0275,1.0274,1.0272,1.0268,1.0266,1.0285,1.0285,1.0285,0,1.0347,1.0339,1.0339,1.0333,1.033,1.0331,1.0325,1.0322,1.0316,1.0313,1.0316,1.0304,1.03,1.029,1.0288,1.0286,1.0283,1.0286,1.0274,1.0273,1.0272,1.0267,1.0266,1.0285,1.0285,1.0285,1.0285,0,1.0335,1.0329,1.0325,1.032,1.0316,1.031,1.0308,1.0304,1.0304,1.0302,1.0294,1.029,1.0284,1.0282,1.0282,1.0271,1.0272,1.0274,1.0278,1.027,1.0266,1.0264,1.0284,1.0285,1.0285,1.0285,0,0,1.0324,1.0318,1.0317,1.0314,1.0309,1.0305,1.0298,1.0292,1.0289,1.0285,1.0279,1.0271,1.0272,1.0269,1.0268,1.0263,1.0254,1.0265,1.0265,1.0262,1.0241,1.0239,1.0237,1.0254,1.0254,1.0253,1.0241,0,1.0315,1.0304,1.0303,1.0293,1.0288,1.0289,1.0283,1.0279,1.0277,1.0272,1.0269,1.0263,1.0266,1.0264,1.0259,1.0256,1.0249,1.0257,1.0248,1.0247,1.0248,1.0235,1.0233,1.0222,1.024,1.0239,1.0239,0,1.0303,1.0298,1.0287,1.0283,1.028,1.0275,1.0269,1.0265,1.026,1.0258,1.0254,1.0254,1.0247,1.0251,1.024,1.0245,1.0241,1.0239,1.0239,1.0237,1.0242,1.0233,1.0218,1.0216,1.0237,1.0237,1.0237,0,1.0295,1.0286,1.0279,1.0276,1.0271,1.0267,1.0264,1.026,1.0256,1.0251,1.0248,1.0242,1.0238,1.0233,1.0231,1.0234,1.022,1.0224,1.0218,1.0218,1.0214,1.0214,1.0198,1.0213,1.0213,1.0213,1.0213,0,1.0284,1.0278,1.0275,1.027,1.0263,1.0262,1.0254,1.0251,1.0247,1.0241,1.0241,1.0236,1.0234,1.0227,1.0226,1.0216,1.0215,1.0213,1.0212,1.0213,1.0213,1.021,1.021,1.0213,1.0213,1.0213,1.0213,0,1.0274,1.0273,1.0264,1.026,1.0258,1.0253,1.0248,1.0243,1.0241,1.0234,1.0232,1.0228,1.0221,1.0218,1.0209,1.0208,1.0197,1.0198,1.0199,1.0199,1.0192,1.0192,1.0173,1.017,1.0187,1.0187,1.0187,0,1.0267,1.0262,1.0257,1.0253,1.0251,1.0245,1.0241,1.0239,1.0235,1.0229,1.0224,1.0217,1.0211,1.0199,1.0195,1.0188,1.0188,1.0182,1.0187,1.0187,1.0187,1.0187,1.0186,1.0181,1.018,1.018,1.018,0,1.0255,1.0254,1.0249,1.0243,1.0238,1.0233,1.0229,1.0225,1.0223,1.0218,1.0211,1.0206,1.0197,1.0189,1.0182,1.0178,1.0178,1.0179,1.0176,1.0176,1.0177,1.0176,1.0195,1.0179,1.0179,1.0179,1.0179,1.0179,1.0246,1.0241,1.0236,1.023,1.0226,1.0222,1.0216,1.0214,1.0208,1.02,1.0199,1.0191,1.0186,1.0176,1.0172,1.0165,1.0166,1.0164,1.0163,1.0162,1.0161,1.0178,1.0164,1.0164,1.0164,1.0164,1.0164,0,1.0232,1.0229,1.0224,1.0217,1.0212,1.0213,1.0208,1.0203,1.0196,1.0191,1.0185,1.0176,1.0168,1.0164,1.0156,1.0151,1.0151,1.0149,1.0149,1.0148,1.0161,1.0163,1.0149,1.0149,1.0149,1.0149,1.0149,1.0149,1.0225,1.0216,1.0215,1.0204,1.0201,1.0193,1.019,1.0186,1.0181,1.0171,1.0165,1.0163,1.0157,1.0149,1.0142,1.0141,1.0137,1.0135,1.0134,1.0146,1.0147,1.0149,1.0151,1.0135,1.0135,1.0122,1.0122,1.0122]}]]